| time (UTC) | temp F | wind direction | speed MPH | gust MPH | rain 1hr in | rain 24hr in | rain mn in | humidity % | barometer mb |
| 20260508044049 | 62 | 269 | 0.0 | 6.0 | 0.00 | 0.00 | 0.00 | 84 | 1009.3 |
| 20260508043550 | 62 | 96 | 2.0 | 6.0 | 0.00 | 0.00 | 0.00 | 84 | 1009.3 |
| 20260508043057 | 62 | 82 | 2.0 | 5.0 | 0.00 | 0.00 | 0.00 | 84 | 1009.2 |
| 20260508042551 | 62 | 178 | 1.0 | 7.0 | 0.00 | 0.00 | 0.00 | 84 | 1009.1 |
| 20260508042048 | 62 | 20 | 3.0 | 7.0 | 0.00 | 0.00 | 0.00 | 84 | 1009.0 |
| 20260508041551 | 62 | 114 | 1.0 | 5.0 | 0.00 | 0.00 | 0.00 | 84 | 1008.9 |
| 20260508041048 | 62 | 114 | 1.0 | 5.0 | 0.00 | 0.00 | 0.00 | 84 | 1008.9 |
| 20260508040648 | 62 | 108 | 2.0 | 7.0 | 0.00 | 0.00 | 0.00 | 84 | 1008.8 |
| 20260508040047 | 62 | 135 | 2.0 | 7.0 | 0.00 | 0.00 | 0.00 | 84 | 1008.7 |
| 20260508035547 | 62 | 76 | 1.0 | 7.0 | 0.00 | 0.00 | 0.00 | 84 | 1008.7 |
| 20260508035048 | 62 | 68 | 3.0 | 6.0 | 0.00 | 0.00 | 0.00 | 84 | 1008.7 |
| 20260508034551 | 62 | 89 | 2.0 | 6.0 | 0.00 | 0.00 | 0.00 | 84 | 1008.6 |
| 20260508034047 | 62 | 171 | 3.0 | 6.0 | 0.00 | 0.00 | 0.00 | 84 | 1008.5 |
| 20260508033546 | 62 | 89 | 1.0 | 8.0 | 0.00 | 0.00 | 0.00 | 84 | 1008.4 |
| 20260508033046 | 62 | 84 | 2.0 | 8.0 | 0.00 | 0.00 | 0.00 | 84 | 1008.4 |
| 20260508032549 | 62 | 169 | 2.0 | 8.0 | 0.00 | 0.00 | 0.00 | 83 | 1008.3 |
| 20260508032046 | 62 | 117 | 2.0 | 8.0 | 0.00 | 0.00 | 0.00 | 83 | 1008.2 |
| 20260508031549 | 62 | 89 | 1.0 | 6.0 | 0.00 | 0.00 | 0.00 | 83 | 1008.2 |
| 20260508031045 | 62 | 127 | 1.0 | 6.0 | 0.00 | 0.00 | 0.00 | 83 | 1008.1 |
| 20260508030545 | 62 | 46 | 1.0 | 6.0 | 0.00 | 0.00 | 0.00 | 83 | 1008.1 |
| 20260508030046 | 62 | 161 | 1.0 | 7.0 | 0.00 | 0.00 | 0.00 | 83 | 1008.0 |
| 20260508025544 | 62 | 140 | 3.0 | 7.0 | 0.00 | 0.00 | 0.00 | 83 | 1007.9 |
| 20260508025045 | 62 | 46 | 1.0 | 7.0 | 0.00 | 0.00 | 0.00 | 83 | 1007.8 |
| 20260508024554 | 62 | 171 | 2.0 | 7.0 | 0.00 | 0.00 | 0.00 | 83 | 1007.8 |
| 20260508024047 | 62 | 112 | 2.0 | 7.0 | 0.00 | 0.00 | 0.00 | 83 | 1007.7 |
| 20260508023544 | 62 | 98 | 2.0 | 5.0 | 0.00 | 0.00 | 0.00 | 83 | 1007.7 |
| 20260508023044 | 62 | 117 | 1.0 | 5.0 | 0.00 | 0.00 | 0.00 | 83 | 1007.7 |
| 20260508022546 | 63 | 35 | 2.0 | 8.0 | 0.00 | 0.00 | 0.00 | 82 | 1007.6 |
| 20260508022043 | 63 | 46 | 1.0 | 8.0 | 0.00 | 0.00 | 0.00 | 82 | 1007.6 |
| 20260508021543 | 63 | 65 | 1.0 | 6.0 | 0.00 | 0.00 | 0.00 | 82 | 1007.6 |
| 20260508021044 | 63 | 159 | 1.0 | 5.0 | 0.00 | 0.00 | 0.00 | 82 | 1007.5 |
| 20260508020542 | 63 | 178 | 1.0 | 5.0 | 0.00 | 0.00 | 0.00 | 81 | 1007.5 |
| 20260508020048 | 63 | 135 | 0.0 | 6.0 | 0.00 | 0.00 | 0.00 | 81 | 1007.4 |
| 20260508015542 | 63 | 286 | 2.0 | 6.0 | 0.00 | 0.00 | 0.00 | 81 | 1007.5 |
| 20260508015042 | 63 | 178 | 2.0 | 6.0 | 0.00 | 0.00 | 0.00 | 81 | 1007.4 |
| 20260508014542 | 63 | 269 | 1.0 | 4.0 | 0.00 | 0.00 | 0.00 | 81 | 1007.5 |
| 20260508014041 | 63 | 89 | 1.0 | 6.0 | 0.00 | 0.00 | 0.00 | 81 | 1007.4 |
| 20260508013541 | 63 | 89 | 1.0 | 6.0 | 0.00 | 0.00 | 0.00 | 81 | 1007.3 |
| 20260508013041 | 63 | 105 | 2.0 | 7.0 | 0.00 | 0.00 | 0.00 | 81 | 1007.4 |
| 20260508012541 | 63 | 76 | 2.0 | 9.0 | 0.00 | 0.00 | 0.00 | 80 | 1007.5 |
| 20260508012041 | 64 | 169 | 3.0 | 11.0 | 0.00 | 0.00 | 0.00 | 80 | 1007.5 |
| 20260508011541 | 64 | 100 | 2.0 | 11.0 | 0.00 | 0.00 | 0.00 | 80 | 1007.5 |
| 20260508011041 | 64 | 89 | 3.0 | 6.0 | 0.00 | 0.00 | 0.00 | 80 | 1007.5 |
| 20260508010541 | 64 | 269 | 1.0 | 5.0 | 0.00 | 0.00 | 0.00 | 79 | 1007.5 |
| 20260508010048 | 64 | 161 | 1.0 | 5.0 | 0.00 | 0.00 | 0.00 | 79 | 1007.6 |
| 20260508005542 | 64 | 178 | 1.0 | 7.0 | 0.00 | 0.00 | 0.00 | 79 | 1007.5 |
| 20260508005044 | 64 | 277 | 1.0 | 7.0 | 0.00 | 0.00 | 0.00 | 78 | 1007.4 |
| 20260508004541 | 65 | 193 | 2.0 | 7.0 | 0.00 | 0.00 | 0.00 | 78 | 1007.4 |
| 20260508004040 | 65 | 223 | 2.0 | 8.0 | 0.00 | 0.00 | 0.00 | 77 | 1007.4 |
| 20260508003539 | 65 | 303 | 3.0 | 8.0 | 0.00 | 0.00 | 0.00 | 78 | 1007.4 |
| 20260508003040 | 65 | 46 | 1.0 | 6.0 | 0.00 | 0.00 | 0.00 | 77 | 1007.4 |
| 20260508002539 | 65 | 46 | 2.0 | 6.0 | 0.00 | 0.00 | 0.00 | 78 | 1007.4 |
| 20260508002039 | 65 | 178 | 2.0 | 6.0 | 0.00 | 0.00 | 0.00 | 78 | 1007.4 |
| 20260508001538 | 65 | 156 | 2.0 | 6.0 | 0.00 | 0.00 | 0.00 | 78 | 1007.4 |
| 20260508001038 | 65 | 72 | 1.0 | 5.0 | 0.00 | 0.00 | 0.00 | 78 | 1007.3 |
| 20260508000539 | 65 | 139 | 1.0 | 6.0 | 0.00 | 0.00 | 0.00 | 78 | 1007.4 |
| 20260508000035 | 65 | 252 | 0.0 | 9.0 | 0.00 | 0.00 | 0.00 | 77 | 1007.5 |
| 20260507235535 | 65 | 250 | 3.0 | 9.0 | 0.00 | 0.00 | 0.00 | 77 | 1007.5 |
| 20260507235035 | 65 | 269 | 2.0 | 8.0 | 0.00 | 0.00 | 0.00 | 76 | 1007.5 |
| 20260507234535 | 65 | 46 | 1.0 | 5.0 | 0.00 | 0.00 | 0.00 | 76 | 1007.5 |
| 20260507234034 | 66 | 152 | 1.0 | 7.0 | 0.00 | 0.00 | 0.00 | 76 | 1007.5 |
| 20260507233534 | 66 | 269 | 3.0 | 8.0 | 0.00 | 0.00 | 0.00 | 76 | 1007.5 |
| 20260507233034 | 66 | 360 | 0.0 | 8.0 | 0.00 | 0.00 | 0.00 | 76 | 1007.5 |
| 20260507232533 | 66 | 250 | 1.0 | 8.0 | 0.00 | 0.00 | 0.00 | 77 | 1007.5 |
| 20260507232033 | 66 | 274 | 2.0 | 8.0 | 0.00 | 0.00 | 0.00 | 76 | 1007.5 |
| 20260507231542 | 66 | 178 | 1.0 | 7.0 | 0.00 | 0.00 | 0.00 | 76 | 1007.5 |
| 20260507231037 | 65 | 46 | 3.0 | 9.0 | 0.00 | 0.00 | 0.00 | 76 | 1007.5 |
| 20260507230532 | 65 | 269 | 3.0 | 10.0 | 0.00 | 0.00 | 0.00 | 77 | 1007.7 |
| 20260507230039 | 65 | 257 | 3.0 | 10.0 | 0.00 | 0.00 | 0.00 | 77 | 1007.6 |
| 20260507225531 | 65 | 178 | 3.0 | 11.0 | 0.00 | 0.00 | 0.00 | 77 | 1007.6 |
| 20260507225031 | 66 | 264 | 4.0 | 11.0 | 0.00 | 0.00 | 0.00 | 77 | 1007.7 |
| 20260507224532 | 66 | 262 | 4.0 | 9.0 | 0.00 | 0.00 | 0.00 | 75 | 1007.8 |
| 20260507224030 | 66 | 331 | 2.0 | 11.0 | 0.00 | 0.00 | 0.00 | 76 | 1007.8 |
| 20260507223529 | 66 | 274 | 3.0 | 11.0 | 0.00 | 0.00 | 0.00 | 75 | 1007.8 |
| 20260507223029 | 67 | 271 | 4.0 | 10.0 | 0.00 | 0.00 | 0.00 | 75 | 1007.8 |
| 20260507222528 | 67 | 188 | 4.0 | 11.0 | 0.00 | 0.00 | 0.00 | 75 | 1007.9 |
| 20260507222028 | 66 | 197 | 2.0 | 11.0 | 0.00 | 0.00 | 0.00 | 76 | 1007.8 |
| 20260507221528 | 66 | 274 | 2.0 | 10.0 | 0.00 | 0.00 | 0.00 | 76 | 1007.9 |
| 20260507221027 | 66 | 272 | 3.0 | 10.0 | 0.00 | 0.00 | 0.00 | 76 | 1008.0 |
| 20260507220526 | 66 | 1 | 4.0 | 11.0 | 0.00 | 0.00 | 0.00 | 76 | 1008.1 |
| 20260507220025 | 65 | 277 | 5.0 | 12.0 | 0.00 | 0.00 | 0.00 | 76 | 1008.1 |
| 20260507215525 | 66 | 269 | 5.0 | 12.0 | 0.00 | 0.00 | 0.00 | 75 | 1008.2 |
| 20260507215024 | 66 | 283 | 2.0 | 12.0 | 0.00 | 0.00 | 0.00 | 76 | 1008.2 |
| 20260507214524 | 66 | 171 | 4.0 | 12.0 | 0.00 | 0.00 | 0.00 | 75 | 1008.3 |
| 20260507214023 | 67 | 269 | 3.0 | 14.0 | 0.00 | 0.00 | 0.00 | 75 | 1008.3 |
| 20260507213523 | 66 | 269 | 2.0 | 14.0 | 0.00 | 0.00 | 0.00 | 75 | 1008.5 |
| 20260507213022 | 67 | 269 | 5.0 | 14.0 | 0.00 | 0.00 | 0.00 | 75 | 1008.6 |
| 20260507212521 | 67 | 346 | 2.0 | 9.0 | 0.00 | 0.00 | 0.00 | 75 | 1008.4 |
| 20260507212022 | 67 | 223 | 3.0 | 10.0 | 0.00 | 0.00 | 0.00 | 75 | 1008.5 |
| 20260507211533 | 67 | 276 | 3.0 | 10.0 | 0.00 | 0.00 | 0.00 | 74 | 1008.6 |
| 20260507211020 | 67 | 232 | 3.0 | 12.0 | 0.00 | 0.00 | 0.00 | 75 | 1008.5 |
| 20260507210519 | 67 | 288 | 3.0 | 12.0 | 0.00 | 0.00 | 0.00 | 75 | 1008.6 |
| 20260507210018 | 66 | 197 | 4.0 | 11.0 | 0.00 | 0.00 | 0.00 | 75 | 1008.6 |
| 20260507205518 | 67 | 269 | 2.0 | 11.0 | 0.00 | 0.00 | 0.00 | 74 | 1008.6 |
| 20260507205016 | 67 | 269 | 4.0 | 12.0 | 0.00 | 0.00 | 0.00 | 75 | 1008.7 |
| 20260507204521 | 66 | 269 | 6.0 | 12.0 | 0.00 | 0.00 | 0.00 | 74 | 1008.7 |
| 20260507204016 | 66 | 259 | 3.0 | 13.0 | 0.00 | 0.00 | 0.00 | 74 | 1008.8 |
| 20260507203516 | 66 | 269 | 5.0 | 13.0 | 0.00 | 0.00 | 0.00 | 75 | 1008.8 |
| 20260507203021 | 66 | 274 | 3.0 | 12.0 | 0.00 | 0.00 | 0.00 | 75 | 1008.8 |
| 20260507202515 | 66 | 269 | 2.0 | 13.0 | 0.00 | 0.00 | 0.00 | 76 | 1008.7 |
| 20260507202015 | 67 | 274 | 2.0 | 13.0 | 0.00 | 0.00 | 0.00 | 75 | 1008.7 |
| 20260507201515 | 66 | 331 | 4.0 | 13.0 | 0.00 | 0.00 | 0.00 | 75 | 1008.8 |
| 20260507201014 | 66 | 262 | 4.0 | 13.0 | 0.00 | 0.00 | 0.00 | 74 | 1008.7 |
| 20260507200516 | 66 | 269 | 4.0 | 11.0 | 0.00 | 0.00 | 0.00 | 75 | 1008.8 |
| 20260507200013 | 66 | 279 | 5.0 | 12.0 | 0.00 | 0.00 | 0.00 | 75 | 1008.8 |
| 20260507195514 | 66 | 229 | 2.0 | 12.0 | 0.00 | 0.00 | 0.00 | 74 | 1008.9 |
| 20260507195013 | 66 | 269 | 2.0 | 13.0 | 0.00 | 0.00 | 0.00 | 75 | 1008.9 |
| 20260507194513 | 66 | 331 | 5.0 | 13.0 | 0.00 | 0.00 | 0.00 | 75 | 1008.9 |
| 20260507194012 | 66 | 190 | 2.0 | 11.0 | 0.00 | 0.00 | 0.00 | 76 | 1008.9 |
| 20260507193513 | 66 | 271 | 4.0 | 13.0 | 0.00 | 0.00 | 0.00 | 75 | 1008.9 |
| 20260507193011 | 66 | 274 | 4.0 | 13.0 | 0.00 | 0.00 | 0.00 | 75 | 1009.0 |
| 20260507192511 | 66 | 276 | 4.0 | 9.0 | 0.00 | 0.00 | 0.00 | 74 | 1009.0 |
| 20260507192011 | 66 | 269 | 4.0 | 10.0 | 0.00 | 0.00 | 0.00 | 75 | 1009.1 |
| 20260507191511 | 66 | 269 | 4.0 | 10.0 | 0.00 | 0.00 | 0.00 | 74 | 1009.1 |
| 20260507191009 | 66 | 269 | 2.0 | 9.0 | 0.00 | 0.00 | 0.00 | 76 | 1009.2 |
| 20260507190508 | 66 | 295 | 3.0 | 11.0 | 0.00 | 0.00 | 0.00 | 75 | 1009.3 |
| 20260507190010 | 66 | 271 | 3.0 | 11.0 | 0.00 | 0.00 | 0.00 | 75 | 1009.3 |
| 20260507185506 | 66 | 269 | 2.0 | 11.0 | 0.00 | 0.00 | 0.00 | 75 | 1009.4 |
| 20260507185006 | 66 | 278 | 3.0 | 9.0 | 0.00 | 0.00 | 0.00 | 74 | 1009.5 |
| 20260507184505 | 66 | 283 | 3.0 | 10.0 | 0.00 | 0.00 | 0.00 | 74 | 1009.6 |
| 20260507184004 | 66 | 295 | 2.0 | 10.0 | 0.00 | 0.00 | 0.00 | 76 | 1009.5 |
| 20260507183503 | 66 | 269 | 3.0 | 11.0 | 0.00 | 0.00 | 0.00 | 75 | 1009.6 |
| 20260507183002 | 66 | 269 | 3.0 | 12.0 | 0.00 | 0.00 | 0.00 | 75 | 1009.6 |
| 20260507182501 | 66 | 269 | 3.0 | 12.0 | 0.00 | 0.00 | 0.00 | 75 | 1009.6 |
| 20260507182000 | 66 | 269 | 5.0 | 9.0 | 0.00 | 0.00 | 0.00 | 74 | 1009.6 |
| 20260507181559 | 66 | 269 | 2.0 | 8.0 | 0.00 | 0.00 | 0.00 | 75 | 1009.5 |
| 20260507181058 | 66 | 274 | 3.0 | 11.0 | 0.00 | 0.00 | 0.00 | 75 | 1009.5 |
| 20260507180558 | 66 | 269 | 4.0 | 11.0 | 0.00 | 0.00 | 0.00 | 75 | 1009.6 |
| 20260507180100 | 66 | 178 | 2.0 | 8.0 | 0.00 | 0.00 | 0.00 | 74 | 1009.5 |
| 20260507175553 | 66 | 269 | 4.0 | 9.0 | 0.00 | 0.00 | 0.00 | 73 | 1009.6 |
| 20260507175053 | 66 | 279 | 4.0 | 9.0 | 0.00 | 0.00 | 0.00 | 74 | 1009.7 |
| 20260507174605 | 66 | 234 | 2.0 | 8.0 | 0.00 | 0.00 | 0.00 | 75 | 1009.7 |
| 20260507174049 | 65 | 269 | 1.0 | 8.0 | 0.00 | 0.00 | 0.00 | 76 | 1009.7 |
| 20260507173549 | 65 | 269 | 2.0 | 9.0 | 0.00 | 0.00 | 0.00 | 76 | 1009.7 |
| 20260507173049 | 65 | 283 | 3.0 | 9.0 | 0.00 | 0.00 | 0.00 | 77 | 1009.7 |
| 20260507172547 | 65 | 276 | 2.0 | 10.0 | 0.00 | 0.00 | 0.00 | 77 | 1009.8 |
| 20260507172046 | 65 | 258 | 3.0 | 10.0 | 0.00 | 0.00 | 0.00 | 77 | 1009.8 |
| 20260507171600 | 64 | 269 | 4.0 | 9.0 | 0.00 | 0.00 | 0.00 | 77 | 1009.8 |
| 20260507171044 | 64 | 178 | 2.0 | 8.0 | 0.00 | 0.00 | 0.00 | 78 | 1009.9 |
| 20260507170544 | 64 | 274 | 4.0 | 9.0 | 0.00 | 0.00 | 0.00 | 77 | 1009.8 |
| 20260507170042 | 64 | 269 | 3.0 | 9.0 | 0.00 | 0.00 | 0.00 | 77 | 1009.8 |
| 20260507165541 | 64 | 269 | 3.0 | 9.0 | 0.00 | 0.00 | 0.00 | 77 | 1009.8 |
| 20260507165041 | 64 | 283 | 2.0 | 8.0 | 0.00 | 0.00 | 0.00 | 77 | 1009.8 |
| 20260507164547 | 64 | 174 | 2.0 | 8.0 | 0.00 | 0.00 | 0.00 | 78 | 1009.8 |
| 20260507164039 | 64 | 257 | 2.0 | 7.0 | 0.00 | 0.00 | 0.00 | 78 | 1009.8 |
| 20260507163537 | 64 | 269 | 2.0 | 8.0 | 0.00 | 0.00 | 0.00 | 78 | 1009.8 |
| 20260507163044 | 63 | 272 | 2.0 | 8.0 | 0.00 | 0.00 | 0.00 | 78 | 1009.8 |
| 20260507162535 | 63 | 271 | 2.0 | 9.0 | 0.00 | 0.00 | 0.00 | 79 | 1009.8 |
| 20260507162035 | 63 | 277 | 2.0 | 9.0 | 0.00 | 0.00 | 0.00 | 79 | 1009.8 |
| 20260507161540 | 63 | 269 | 2.0 | 7.0 | 0.00 | 0.00 | 0.00 | 79 | 1009.8 |
| 20260507161031 | 63 | 269 | 1.0 | 8.0 | 0.00 | 0.00 | 0.00 | 79 | 1009.8 |
| 20260507160530 | 63 | 272 | 3.0 | 8.0 | 0.00 | 0.00 | 0.00 | 79 | 1009.8 |
| 20260507160041 | 63 | 269 | 3.0 | 7.0 | 0.00 | 0.00 | 0.00 | 79 | 1009.7 |
| 20260507155527 | 63 | 269 | 2.0 | 5.0 | 0.00 | 0.00 | 0.00 | 80 | 1009.8 |
| 20260507155025 | 63 | 161 | 1.0 | 5.0 | 0.00 | 0.00 | 0.00 | 79 | 1009.9 |
| 20260507154526 | 62 | 269 | 1.0 | 7.0 | 0.00 | 0.00 | 0.00 | 80 | 1009.9 |
| 20260507154023 | 62 | 234 | 3.0 | 7.0 | 0.00 | 0.00 | 0.00 | 80 | 1009.9 |
| 20260507153522 | 62 | 269 | 2.0 | 8.0 | 0.00 | 0.00 | 0.00 | 80 | 1010.0 |
| 20260507153022 | 62 | 269 | 1.0 | 8.0 | 0.00 | 0.00 | 0.00 | 79 | 1010.1 |
| 20260507152522 | 62 | 1 | 0.0 | 5.0 | 0.00 | 0.00 | 0.00 | 80 | 1010.0 |
| 20260507152021 | 62 | 72 | 1.0 | 5.0 | 0.00 | 0.00 | 0.00 | 79 | 1010.0 |
| 20260507151520 | 62 | 283 | 2.0 | 5.0 | 0.00 | 0.00 | 0.00 | 79 | 1010.0 |
| 20260507151018 | 62 | 269 | 1.0 | 4.0 | 0.00 | 0.00 | 0.00 | 79 | 1010.0 |
| 20260507150518 | 62 | 178 | 1.0 | 3.0 | 0.00 | 0.00 | 0.00 | 79 | 1009.9 |
| 20260507150020 | 61 | 89 | 0.0 | 3.0 | 0.00 | 0.00 | 0.00 | 80 | 1009.9 |
| 20260507145514 | 61 | 240 | 0.0 | 3.0 | 0.00 | 0.00 | 0.00 | 80 | 1009.9 |
| 20260507145012 | 61 | 234 | 0.0 | 3.0 | 0.00 | 0.00 | 0.00 | 81 | 1009.9 |
| 20260507144516 | 60 | 269 | 0.0 | 3.0 | 0.00 | 0.00 | 0.00 | 81 | 1009.8 |
| 20260507144012 | 60 | 206 | 0.0 | 3.0 | 0.00 | 0.00 | 0.00 | 82 | 1009.8 |
| 20260507143509 | 59 | 135 | 0.0 | 3.0 | 0.00 | 0.00 | 0.00 | 83 | 1009.7 |
| 20260507143008 | 59 | 89 | 0.0 | 3.0 | 0.00 | 0.00 | 0.00 | 84 | 1009.7 |
| 20260507142505 | 58 | 178 | 0.0 | 2.0 | 0.00 | 0.00 | 0.00 | 84 | 1009.6 |
| 20260507142003 | 58 | 234 | 0.0 | 2.0 | 0.00 | 0.00 | 0.00 | 86 | 1009.6 |
| 20260507141508 | 57 | 178 | 0.0 | 2.0 | 0.00 | 0.00 | 0.00 | 86 | 1009.5 |
| 20260507141001 | 57 | 89 | 0.0 | 2.0 | 0.00 | 0.00 | 0.00 | 87 | 1009.5 |
| 20260507140559 | 57 | 46 | 0.0 | 2.0 | 0.00 | 0.00 | 0.00 | 87 | 1009.5 |
| 20260507140107 | 56 | 145 | 0.0 | 2.0 | 0.00 | 0.00 | 0.00 | 87 | 1009.4 |
| 20260507135556 | 56 | 89 | 0.0 | 2.0 | 0.00 | 0.00 | 0.00 | 86 | 1009.4 |
| 20260507135054 | 56 | 152 | 0.0 | 2.0 | 0.00 | 0.00 | 0.00 | 86 | 1009.4 |
| 20260507134553 | 56 | 135 | 0.0 | 2.0 | 0.00 | 0.00 | 0.00 | 85 | 1009.3 |
| 20260507134052 | 55 | 46 | 0.0 | 1.0 | 0.00 | 0.00 | 0.00 | 85 | 1009.1 |
| 20260507133550 | 55 | 46 | 0.0 | 1.0 | 0.00 | 0.00 | 0.00 | 85 | 1009.1 |
| 20260507133050 | 55 | 314 | 0.0 | 1.0 | 0.00 | 0.00 | 0.00 | 84 | 1009.1 |
| 20260507132547 | 55 | 63 | 0.0 | 2.0 | 0.00 | 0.00 | 0.00 | 84 | 1009.1 |
| 20260507132047 | 55 | 135 | 0.0 | 2.0 | 0.00 | 0.00 | 0.00 | 84 | 1009.0 |
| 20260507131548 | 55 | 89 | 0.0 | 2.0 | 0.00 | 0.00 | 0.00 | 84 | 1009.0 |
| 20260507131046 | 55 | 28 | 0.0 | 1.0 | 0.00 | 0.00 | 0.00 | 84 | 1009.0 |
| 20260507130545 | 55 | 46 | 0.0 | 1.0 | 0.00 | 0.00 | 0.00 | 84 | 1008.9 |
| 20260507130058 | 55 | 89 | 0.0 | 1.0 | 0.00 | 0.00 | 0.00 | 84 | 1008.9 |
| 20260507125543 | 55 | 89 | 0.0 | 2.0 | 0.00 | 0.00 | 0.00 | 84 | 1008.9 |
| 20260507125043 | 55 | 46 | 0.0 | 2.0 | 0.00 | 0.00 | 0.00 | 84 | 1008.9 |
| 20260507124558 | 55 | 46 | 0.0 | 2.0 | 0.00 | 0.00 | 0.00 | 84 | 1008.9 |
| 20260507124042 | 56 | 46 | 0.0 | 1.0 | 0.00 | 0.00 | 0.00 | 84 | 1008.9 |
| 20260507123542 | 56 | 63 | 0.0 | 1.0 | 0.00 | 0.00 | 0.00 | 84 | 1008.9 |
| 20260507123042 | 56 | 314 | 0.0 | 2.0 | 0.00 | 0.00 | 0.00 | 83 | 1008.9 |
| 20260507122541 | 56 | 46 | 0.0 | 2.0 | 0.00 | 0.00 | 0.00 | 83 | 1008.8 |
| 20260507122041 | 56 | 46 | 0.0 | 1.0 | 0.00 | 0.00 | 0.00 | 83 | 1008.9 |
| 20260507121542 | 56 | 135 | 0.0 | 1.0 | 0.00 | 0.00 | 0.00 | 83 | 1008.9 |
| 20260507121041 | 56 | 76 | 0.0 | 1.0 | 0.00 | 0.00 | 0.00 | 83 | 1008.8 |
| 20260507120539 | 56 | 117 | 0.0 | 1.0 | 0.00 | 0.00 | 0.00 | 83 | 1008.9 |
| 20260507120040 | 56 | 89 | 0.0 | 1.0 | 0.00 | 0.00 | 0.00 | 83 | 1008.9 |
| 20260507115539 | 56 | 89 | 0.0 | 2.0 | 0.00 | 0.00 | 0.00 | 83 | 1008.9 |
| 20260507115038 | 56 | 135 | 0.0 | 2.0 | 0.00 | 0.00 | 0.00 | 83 | 1008.9 |
| 20260507114549 | 56 | 89 | 0.0 | 2.0 | 0.00 | 0.00 | 0.00 | 83 | 1008.8 |
| 20260507114037 | 56 | 46 | 0.0 | 2.0 | 0.00 | 0.00 | 0.00 | 83 | 1008.9 |
| 20260507113536 | 56 | 89 | 0.0 | 2.0 | 0.00 | 0.00 | 0.00 | 83 | 1008.8 |
| 20260507113037 | 56 | 28 | 0.0 | 1.0 | 0.00 | 0.00 | 0.00 | 83 | 1008.9 |
| 20260507112535 | 56 | 1 | 0.0 | 1.0 | 0.00 | 0.00 | 0.00 | 83 | 1008.9 |
| 20260507112038 | 57 | 1 | 0.0 | 2.0 | 0.00 | 0.00 | 0.00 | 82 | 1009.0 |
| 20260507111534 | 57 | 56 | 0.0 | 2.0 | 0.00 | 0.00 | 0.00 | 83 | 1009.0 |
| 20260507111035 | 57 | 331 | 0.0 | 2.0 | 0.00 | 0.00 | 0.00 | 82 | 1009.1 |
| 20260507110533 | 57 | 35 | 0.0 | 2.0 | 0.00 | 0.00 | 0.00 | 83 | 1009.1 |
| 20260507110042 | 57 | 63 | 0.0 | 2.0 | 0.00 | 0.00 | 0.00 | 83 | 1009.2 |
| 20260507105532 | 57 | 1 | 0.0 | 2.0 | 0.00 | 0.00 | 0.00 | 83 | 1009.3 |
| 20260507105032 | 57 | 269 | 0.0 | 1.0 | 0.00 | 0.00 | 0.00 | 83 | 1009.2 |
| 20260507104532 | 57 | 135 | 0.0 | 1.0 | 0.00 | 0.00 | 0.00 | 82 | 1009.2 |
| 20260507104032 | 57 | 46 | 0.0 | 2.0 | 0.00 | 0.00 | 0.00 | 82 | 1009.1 |
| 20260507103532 | 57 | 56 | 0.0 | 2.0 | 0.00 | 0.00 | 0.00 | 82 | 1009.2 |
| 20260507103031 | 57 | 63 | 0.0 | 2.0 | 0.00 | 0.00 | 0.00 | 81 | 1009.2 |
| 20260507102531 | 57 | 46 | 0.0 | 4.0 | 0.00 | 0.00 | 0.00 | 81 | 1009.2 |
| 20260507102031 | 57 | 46 | 1.0 | 4.0 | 0.00 | 0.00 | 0.00 | 81 | 1009.2 |
| 20260507101530 | 57 | 68 | 1.0 | 4.0 | 0.00 | 0.00 | 0.00 | 81 | 1009.3 |
| 20260507101030 | 57 | 72 | 0.0 | 3.0 | 0.00 | 0.00 | 0.00 | 81 | 1009.2 |
| 20260507100528 | 57 | 56 | 1.0 | 3.0 | 0.00 | 0.00 | 0.00 | 81 | 1009.3 |
| 20260507100028 | 57 | 63 | 0.0 | 2.0 | 0.00 | 0.00 | 0.00 | 81 | 1009.2 |
| 20260507095527 | 57 | 46 | 0.0 | 2.0 | 0.00 | 0.00 | 0.00 | 81 | 1009.4 |
| 20260507095026 | 57 | 56 | 1.0 | 2.0 | 0.00 | 0.00 | 0.00 | 80 | 1009.3 |
| 20260507094525 | 57 | 89 | 0.0 | 2.0 | 0.00 | 0.00 | 0.00 | 80 | 1009.3 |
| 20260507094024 | 57 | 108 | 1.0 | 3.0 | 0.00 | 0.00 | 0.00 | 80 | 1009.4 |
| 20260507093524 | 57 | 89 | 0.0 | 3.0 | 0.00 | 0.00 | 0.00 | 80 | 1009.4 |
| 20260507093033 | 57 | 35 | 0.0 | 2.0 | 0.00 | 0.00 | 0.00 | 80 | 1009.4 |
| 20260507092523 | 57 | 89 | 0.0 | 3.0 | 0.00 | 0.00 | 0.00 | 80 | 1009.4 |
| 20260507092022 | 57 | 1 | 1.0 | 3.0 | 0.00 | 0.00 | 0.00 | 80 | 1009.5 |
| 20260507091534 | 57 | 89 | 0.0 | 2.0 | 0.00 | 0.00 | 0.00 | 80 | 1009.6 |
| 20260507091021 | 58 | 46 | 1.0 | 2.0 | 0.00 | 0.00 | 0.00 | 80 | 1009.7 |
| 20260507090520 | 58 | 89 | 0.0 | 2.0 | 0.00 | 0.00 | 0.00 | 80 | 1009.7 |
| 20260507090019 | 58 | 63 | 0.0 | 3.0 | 0.00 | 0.00 | 0.00 | 80 | 1009.8 |
| 20260507085518 | 58 | 28 | 1.0 | 3.0 | 0.00 | 0.00 | 0.00 | 80 | 1009.9 |
| 20260507085018 | 58 | 108 | 0.0 | 2.0 | 0.00 | 0.00 | 0.00 | 79 | 1009.9 |
| 20260507084521 | 58 | 53 | 0.0 | 2.0 | 0.00 | 0.00 | 0.00 | 79 | 1010.0 |
| 20260507084016 | 58 | 28 | 0.0 | 4.0 | 0.00 | 0.00 | 0.00 | 79 | 1010.0 |
| 20260507083516 | 58 | 28 | 1.0 | 0.0 | 1.07 | 0.98 | 0.00 | 79 | 1010.1 |
| 20260507083016 | 58 | 89 | 0.0 | 2.0 | 0.00 | 0.00 | 0.00 | 79 | 1010.1 |
| 20260507082515 | 58 | 63 | 1.0 | 2.0 | 0.00 | 0.00 | 0.00 | 79 | 1010.1 |
| 20260507082017 | 58 | 89 | 0.0 | 2.0 | 0.00 | 0.00 | 0.00 | 79 | 1010.2 |
| 20260507081514 | 58 | 46 | 1.0 | 2.0 | 0.00 | 0.00 | 0.00 | 78 | 1010.3 |
| 20260507081013 | 58 | 1 | 0.0 | 2.0 | 0.00 | 0.00 | 0.00 | 78 | 1010.3 |
| 20260507080512 | 59 | 46 | 0.0 | 2.0 | 0.00 | 0.00 | 0.00 | 78 | 1010.3 |
| 20260507080012 | 59 | 46 | 0.0 | 1.0 | 0.00 | 0.00 | 0.00 | 78 | 1010.3 |
| 20260507075510 | 59 | 46 | 0.0 | 1.0 | 0.00 | 0.00 | 0.00 | 78 | 1010.3 |
| 20260507075011 | 59 | 46 | 0.0 | 1.0 | 0.00 | 0.00 | 0.00 | 78 | 1010.3 |
| 20260507074510 | 59 | 46 | 0.0 | 1.0 | 0.00 | 0.00 | 0.00 | 78 | 1010.2 |
| 20260507074009 | 59 | 135 | 0.0 | 1.0 | 0.00 | 0.00 | 0.00 | 78 | 1010.1 |
| 20260507073509 | 59 | 269 | 0.0 | 1.0 | 0.00 | 0.00 | 0.00 | 78 | 1010.1 |
| 20260507073009 | 59 | 46 | 0.0 | 1.0 | 0.00 | 0.00 | 0.00 | 77 | 1010.2 |
| 20260507072508 | 59 | 314 | 0.0 | 1.0 | 0.00 | 0.00 | 0.00 | 77 | 1010.1 |
| 20260507072009 | 59 | 46 | 0.0 | 1.0 | 0.00 | 0.00 | 0.00 | 77 | 1010.2 |
| 20260507071510 | 59 | 135 | 0.0 | 1.0 | 0.00 | 0.00 | 0.00 | 77 | 1010.2 |
| 20260507071007 | 60 | 89 | 0.0 | 2.0 | 0.00 | 0.00 | 0.00 | 77 | 1010.3 |
| 20260507070506 | 60 | 46 | 0.0 | 2.0 | 0.00 | 0.00 | 0.00 | 78 | 1010.3 |
| 20260507070008 | 60 | 89 | 0.0 | 2.0 | 0.00 | 0.00 | 0.00 | 78 | 1010.3 |
| 20260507065503 | 60 | 46 | 0.0 | 2.0 | 0.00 | 0.00 | 0.00 | 78 | 1010.3 |
| 20260507065003 | 60 | 89 | 0.0 | 2.0 | 0.00 | 0.00 | 0.00 | 78 | 1010.3 |
| 20260507064503 | 60 | 63 | 0.0 | 2.0 | 0.00 | 0.00 | 0.00 | 77 | 1010.3 |
| 20260507064004 | 60 | 152 | 0.0 | 2.0 | 0.00 | 0.00 | 0.00 | 77 | 1010.3 |
| 20260507063502 | 60 | 135 | 0.0 | 2.0 | 0.00 | 0.00 | 0.00 | 76 | 1010.5 |
| 20260507063008 | 60 | 303 | 0.0 | 2.0 | 0.00 | 0.00 | 0.00 | 75 | 1010.4 |
| 20260507062505 | 60 | 46 | 0.0 | 1.0 | 0.00 | 0.00 | 0.00 | 74 | 1010.4 |
| 20260507062002 | 60 | 46 | 0.0 | 1.0 | 0.00 | 0.00 | 0.00 | 74 | 1010.4 |
| 20260507061503 | 60 | 46 | 0.0 | 2.0 | 0.00 | 0.00 | 0.00 | 74 | 1010.5 |
| 20260507061003 | 60 | 46 | 0.0 | 2.0 | 0.00 | 0.00 | 0.00 | 74 | 1010.5 |
| 20260507060502 | 60 | 269 | 0.0 | 1.0 | 0.00 | 0.00 | 0.00 | 73 | 1010.5 |
| 20260507060002 | 60 | 269 | 0.0 | 1.0 | 0.00 | 0.00 | 0.00 | 73 | 1010.6 |
| 20260507055502 | 60 | 89 | 0.0 | 1.0 | 0.00 | 0.00 | 0.00 | 73 | 1010.5 |
| 20260507055001 | 61 | 152 | 0.0 | 2.0 | 0.00 | 0.00 | 0.00 | 73 | 1010.4 |
| 20260507054502 | 61 | 28 | 0.0 | 1.0 | 0.00 | 0.00 | 0.00 | 73 | 1010.4 |
| 20260507054001 | 61 | 135 | 0.0 | 2.0 | 0.00 | 0.00 | 0.00 | 73 | 1010.4 |
| 20260507053501 | 61 | 89 | 0.0 | 2.0 | 0.00 | 0.00 | 0.00 | 73 | 1010.4 |
| 20260507053000 | 61 | 250 | 0.0 | 1.0 | 0.00 | 0.00 | 0.00 | 73 | 1010.3 |
| 20260507052500 | 61 | 28 | 0.0 | 2.0 | 0.00 | 0.00 | 0.00 | 72 | 1010.2 |
| 20260507052001 | 61 | 223 | 0.0 | 2.0 | 0.00 | 0.00 | 0.00 | 73 | 1010.3 |
| 20260507051604 | 61 | 46 | 0.0 | 2.0 | 0.00 | 0.00 | 0.00 | 72 | 1010.3 |
| 20260507051102 | 61 | 72 | 0.0 | 1.0 | 0.00 | 0.00 | 0.00 | 72 | 1010.3 |
| 20260507050600 | 61 | 63 | 0.0 | 1.0 | 0.00 | 0.00 | 0.00 | 72 | 1010.3 |
| 20260507045602 | 61 | 89 | 0.0 | 2.0 | 0.00 | 0.00 | 0.00 | 72 | 1010.2 |
| 20260507045100 | 61 | 89 | 0.0 | 1.0 | 0.00 | 0.00 | 0.00 | 72 | 1010.2 |
| 20260507044600 | 62 | 46 | 0.0 | 1.0 | 0.00 | 0.00 | 0.00 | 72 | 1010.2 |
| 20260507044059 | 62 | 89 | 0.0 | 1.0 | 0.00 | 0.00 | 0.00 | 72 | 1010.3 |